Wind_Speed
37 40 35 29 26 24 17 15 14 16 12 2 3 10 7 12 9 12 15 20 25 23 28 34 33 34 31 27 27 25 24 24 26 27 28 30 32 33 35 35 34 34 35 36
38 36 37 33 31 27 20 16 16 17 10 8 6 5 9 11 11 15 14 19 21 23 29 32 37 38 36 33 29 28 28 27 26 27 29 30 32 34 35 36 35 33 34 35
36 34 42 39 32 30 25 19 14 12 13 20 22 18 15 16 19 19 21 20 18 27 22 25 31 46 32 31 34 31 29 28 25 27 30 31 32 33 33 34 35 34 35 36
41 41 43 42 37 33 28 21 20 20 22 26 25 26 20 19 20 21 18 16 25 32 34 29 31 31 30 28 28 29 29 28 27 28 30 31 32 32 32 33 34 36 37 36
39 41 43 44 40 38 29 28 28 28 31 34 29 31 22 18 16 19 14 17 26 29 32 25 17 13 18 22 27 29 29 27 28 29 30 30 31 31 30 32 33 36 39 36
43 44 45 43 43 41 36 34 31 33 34 38 30 30 13 19 16 18 17 19 23 25 25 27 17 20 26 25 27 27 28 27 27 30 32 32 33 34 32 33 32 34 36 36
42 44 42 43 46 46 42 36 38 37 38 38 34 31 21 17 19 18 18 22 25 26 27 26 21 25 23 25 27 26 26 26 27 30 32 32 34 33 32 33 32 35 35 36
39 41 37 41 45 45 44 41 41 42 39 34 32 28 15 17 16 17 21 23 20 21 22 25 28 28 26 24 25 24 25 27 27 28 30 32 34 32 31 31 31 34 35 36
36 38 36 35 39 44 46 45 37 40 39 36 34 26 20 18 17 19 23 22 20 23 25 31 29 29 24 24 24 24 26 27 26 27 29 32 33 31 30 30 31 33 35 36
30 32 35 33 37 43 45 39 38 42 41 39 37 31 22 19 19 21 24 24 23 27 26 29 30 26 25 24 24 25 26 27 25 27 28 31 31 30 29 30 32 34 35 35
30 32 33 35 35 36 39 42 44 45 43 37 35 24 22 21 20 22 26 27 26 28 27 29 32 24 24 26 26 26 26 26 25 26 28 30 29 28 28 29 32 34 36 35
26 28 33 34 30 33 34 35 38 42 38 32 30 26 25 23 18 21 25 26 28 29 32 30 31 26 27 26 26 26 26 25 25 27 27 29 27 28 28 29 32 35 35 34
29 30 31 35 34 34 35 33 33 34 32 33 32 29 23 23 22 22 24 28 29 31 30 31 28 34 31 29 26 26 26 25 25 27 27 28 26 28 28 29 31 34 35 34
31 28 30 30 27 27 29 26 28 31 32 32 35 32 31 23 18 20 25 30 31 33 34 34 37 41 37 30 26 25 25 24 24 25 27 27 27 27 26 28 30 34 34 33
32 30 29 26 27 28 28 28 30 32 32 31 29 31 29 19 20 20 25 28 32 36 39 39 41 39 32 29 26 24 23 22 24 25 25 25 26 25 25 27 30 34 34 33
33 30 32 31 25 27 30 30 33 36 35 34 32 31 29 22 22 24 28 32 35 36 40 44 35 34 29 28 25 21 19 25 25 23 24 25 25 25 25 27 31 32 32 33
34 33 30 25 24 25 34 33 32 32 34 36 32 31 28 26 25 24 25 31 34 38 41 40 40 35 25 26 25 20 24 25 23 22 23 23 25 25 24 27 30 33 33 33
33 31 27 24 22 28 25 30 33 34 33 32 31 32 27 27 29 28 28 31 40 44 43 42 40 25 23 23 25 24 25 23 21 21 22 24 25 25 24 27 34 32 32 32
33 31 24 24 25 25 24 29 33 34 36 34 34 31 30 31 30 28 33 35 35 31 30 33 30 22 20 23 26 27 24 21 20 21 24 25 25 24 25 31 32 33 32 34
26 24 24 23 25 24 20 25 32 40 38 36 34 32 31 30 30 33 30 29 23 22 24 21 23 25 25 25 26 24 22 20 21 23 25 26 25 24 27 33 32 37 35 31
27 26 25 24 23 16 17 18 20 26 26 26 26 28 31 30 30 29 27 26 22 27 26 29 28 27 28 26 24 21 21 20 24 24 26 25 25 24 30 30 32 37 31 31
30 29 29 29 27 24 16 13 12 14 16 17 24 28 28 28 29 26 24 22 24 26 26 24 25 27 26 23 21 21 21 23 23 24 25 25 23 25 29 29 33 36 34 32
34 33 30 31 30 22 19 17 15 13 18 22 26 24 24 28 27 23 23 23 26 26 28 27 25 25 23 20 23 24 23 22 22 24 25 25 24 28 28 33 38 38 35 32
39 37 35 30 27 23 20 16 20 18 18 22 23 21 24 25 23 22 22 26 26 26 27 25 22 23 22 23 24 23 22 22 24 25 26 26 26 29 34 39 42 40 33 32
36 34 34 29 23 21 19 14 14 16 13 16 19 22 26 26 22 21 27 25 26 25 22 19 20 23 23 23 23 22 22 23 24 26 27 28 31 35 39 43 44 35 32 28
34 32 30 21 19 19 13 10 14 14 9 12 17 23 26 24 21 27 23 23 22 22 20 19 22 23 23 23 22 22 22 24 26 27 29 30 33 36 40 43 37 30 29 33
Wind_Direction
221 219 224 222 235 241 230 230 249 266 263 326 48 222 239 249 311 286 305 305 303 318 303 312 311 310 315 324 326 331 322 330 336 333 333 326 323 321 320 323 323 323 322 320
223 224 217 211 226 239 238 235 253 265 288 307 270 232 254 277 278 280 299 316 327 311 304 303 304 305 300 310 314 316 313 319 330 327 326 324 323 324 325 325 326 326 326 322
223 225 218 215 220 236 246 251 268 284 293 287 291 286 265 275 288 293 300 317 331 330 316 294 300 283 287 291 304 304 308 311 324 323 326 324 325 326 330 329 326 327 326 324
224 223 220 220 220 228 238 248 261 260 271 273 266 269 262 281 297 298 309 322 325 326 324 314 288 302 282 279 293 299 304 311 320 322 324 325 327 331 335 329 328 332 330 328
226 227 222 223 229 228 229 240 248 252 260 265 264 266 277 277 297 299 318 313 320 326 344 349 340 306 315 300 294 293 302 312 317 320 318 320 321 328 327 324 329 333 331 329
222 226 225 221 225 227 230 229 237 244 251 259 269 275 282 287 296 300 310 301 310 318 333 344 325 340 315 297 288 294 305 312 316 318 317 318 320 322 320 322 329 332 330 331
220 226 224 221 224 225 232 229 232 243 250 260 268 276 295 291 284 302 311 300 309 312 318 324 324 330 314 300 292 297 305 311 318 315 317 321 323 322 322 324 330 331 332 333
226 226 226 222 226 232 230 234 238 245 249 258 262 275 315 285 284 296 297 311 318 331 337 336 327 319 314 302 296 298 301 308 314 312 318 324 321 323 322 325 331 332 333 335
229 227 225 225 227 229 230 233 238 243 254 263 272 279 279 283 277 288 296 301 318 321 322 335 331 330 312 302 299 296 302 307 310 312 320 323 320 322 324 328 332 332 336 336
226 229 229 227 222 224 226 233 238 243 257 269 277 280 291 280 286 282 293 299 311 318 320 329 332 327 320 308 299 294 296 302 309 315 320 319 320 324 329 330 331 334 336 337
223 223 223 224 223 231 232 235 237 243 248 269 273 277 298 279 283 288 293 302 308 314 318 324 330 328 323 316 302 294 295 302 311 314 317 316 321 327 330 332 333 333 337 337
223 223 221 226 220 221 227 231 236 246 249 262 274 282 289 284 276 288 296 302 307 309 310 316 321 324 326 316 304 297 299 305 313 311 313 317 321 328 331 334 333 334 338 339
222 218 213 222 220 218 229 235 235 240 247 259 269 285 279 276 265 274 288 295 300 305 313 318 317 332 324 318 309 304 303 309 308 310 312 316 324 328 333 333 332 336 337 339
220 210 215 227 237 229 226 226 235 241 251 258 266 276 284 293 297 277 279 287 297 300 309 306 308 312 319 315 307 304 303 304 308 308 313 320 325 329 334 330 334 336 336 339
218 214 206 212 214 217 225 228 235 243 250 258 264 270 279 308 308 288 282 292 298 301 304 302 307 311 311 310 305 301 303 310 310 312 317 322 324 330 330 330 336 336 335 338
220 210 207 203 201 220 228 229 234 241 249 256 262 268 285 301 304 296 304 303 303 301 303 303 305 312 307 308 302 305 308 313 303 314 317 320 327 330 329 333 335 334 334 335
214 212 207 200 200 208 221 226 234 241 247 255 264 270 282 292 305 312 311 302 304 307 304 302 298 302 302 308 308 311 311 306 308 317 318 324 327 328 326 332 336 334 329 332
208 217 208 197 206 218 221 223 234 243 247 253 263 271 286 295 299 304 311 299 298 297 295 298 303 302 307 315 312 309 307 306 314 317 321 324 323 325 327 330 332 332 328 332
216 214 213 221 218 235 231 229 235 244 250 255 261 274 287 288 299 306 308 310 306 309 314 306 298 290 303 314 313 309 305 309 314 319 321 322 322 322 325 329 335 332 329 330
217 213 217 230 231 238 246 254 248 249 257 261 267 275 282 285 293 303 303 316 304 304 318 333 333 333 329 316 308 309 309 313 321 319 317 320 321 319 324 330 329 331 328 330
218 217 221 230 235 246 260 269 264 263 270 267 272 276 282 287 290 305 302 306 320 320 322 326 325 321 320 314 315 314 316 322 318 315 318 319 318 319 326 328 327 327 327 327
223 223 226 237 252 260 261 265 285 268 268 260 267 273 282 284 294 294 293 308 319 318 316 317 318 320 319 317 320 318 317 312 313 315 317 315 312 317 322 327 329 326 322 323
228 233 241 247 255 259 265 268 272 276 266 260 264 273 280 281 287 285 296 312 314 314 313 313 314 316 316 314 316 314 313 313 314 316 317 312 307 317 323 328 328 325 319 322
227 235 244 256 256 262 266 262 263 265 279 255 263 267 268 273 277 290 305 316 318 316 312 309 310 312 310 310 311 312 313 312 313 314 313 308 303 311 317 324 324 322 316 321
234 240 250 251 251 254 256 266 251 264 262 252 255 263 262 271 293 305 316 321 321 319 320 315 310 311 311 312 313 311 311 313 315 316 316 310 302 307 316 319 321 318 319 321
237 245 241 243 249 249 246 249 239 239 243 258 261 260 271 297 304 312 314 317 323 323 317 314 316 315 316 315 313 313 316 318 319 318 316 312 312 315 318 321 321 321 321 321
Height
5862 5865 5867 5873 5876 5879 5884 5887 5889 5890 5890 5889 5889 5891 5890 5893 5894 5895 5895 5893 5892 5888 5885 5882 5877 5872 5868 5865 5859 5855 5854 5851 5849 5844 5840 5837 5832 5827 5822 5815 5809 5803 5797 5792
5858 5863 5869 5871 5873 5876 5880 5883 5885 5887 5888 5886 5889 5889 5889 5889 5891 5891 5892 5890 5889 5886 5881 5877 5874 5868 5865 5862 5857 5854 5851 5848 5844 5841 5837 5831 5827 5821 5816 5810 5803 5797 5791 5786
5855 5864 5865 5867 5871 5873 5877 5880 5883 5885 5884 5884 5885 5887 5888 5889 5891 5891 5889 5887 5885 5882 5876 5872 5867 5860 5858 5856 5854 5851 5848 5843 5840 5837 5832 5828 5823 5816 5811 5805 5799 5791 5785 5779
5851 5856 5861 5865 5868 5872 5875 5879 5882 5883 5883 5884 5884 5883 5886 5886 5887 5885 5884 5882 5881 5876 5870 5861 5857 5852 5852 5852 5850 5847 5843 5840 5837 5833 5827 5823 5818 5812 5805 5800 5794 5786 5779 5772
5849 5851 5857 5861 5867 5869 5875 5878 5879 5879 5879 5878 5880 5879 5884 5883 5883 5881 5880 5878 5876 5871 5863 5857 5851 5849 5852 5848 5845 5843 5840 5836 5833 5829 5824 5819 5815 5807 5801 5796 5788 5780 5774 5767
5841 5846 5851 5858 5863 5866 5869 5872 5875 5874 5873 5872 5877 5877 5881 5881 5880 5877 5876 5874 5871 5868 5862 5857 5852 5850 5848 5843 5840 5838 5834 5831 5828 5825 5820 5815 5809 5802 5797 5790 5782 5775 5769 5763
5837 5840 5845 5853 5855 5859 5863 5867 5867 5867 5867 5868 5871 5872 5875 5878 5875 5873 5871 5870 5866 5863 5859 5854 5850 5846 5842 5838 5835 5832 5829 5826 5824 5820 5815 5810 5804 5798 5792 5785 5777 5770 5765 5758
5832 5835 5840 5846 5850 5855 5858 5861 5863 5861 5863 5867 5866 5866 5872 5871 5870 5868 5866 5865 5862 5858 5853 5849 5844 5840 5838 5834 5830 5827 5824 5821 5819 5816 5810 5804 5799 5793 5787 5780 5772 5766 5760 5753
5826 5831 5836 5841 5847 5850 5852 5853 5861 5859 5859 5860 5862 5864 5866 5866 5864 5864 5863 5862 5857 5854 5849 5844 5839 5837 5833 5829 5825 5822 5820 5818 5815 5810 5804 5799 5795 5789 5782 5776 5768 5762 5755 5749
5821 5827 5830 5835 5838 5840 5844 5854 5854 5853 5854 5854 5856 5858 5860 5860 5859 5859 5857 5857 5853 5849 5845 5841 5837 5833 5829 5825 5820 5818 5815 5814 5810 5804 5799 5795 5791 5784 5777 5771 5764 5756 5750 5744
5813 5818 5824 5827 5832 5837 5842 5844 5846 5848 5849 5852 5851 5854 5856 5855 5854 5854 5853 5850 5848 5844 5841 5837 5833 5829 5824 5820 5816 5813 5811 5808 5803 5798 5794 5791 5785 5779 5773 5766 5759 5752 5747 5740
5810 5814 5817 5823 5826 5830 5834 5837 5841 5843 5848 5847 5847 5850 5851 5851 5849 5848 5847 5845 5842 5839 5836 5833 5830 5825 5820 5815 5812 5809 5805 5801 5797 5794 5790 5786 5780 5773 5767 5760 5755 5749 5741 5736
5803 5806 5811 5815 5820 5823 5828 5833 5837 5839 5842 5842 5842 5845 5845 5844 5843 5843 5841 5839 5837 5834 5830 5828 5825 5820 5815 5811 5806 5803 5799 5794 5792 5789 5785 5780 5774 5768 5760 5756 5751 5744 5737 5731
5795 5801 5806 5813 5820 5822 5825 5829 5832 5833 5835 5837 5838 5839 5840 5840 5839 5837 5836 5834 5832 5828 5825 5822 5819 5814 5811 5806 5801 5796 5793 5790 5787 5784 5779 5774 5769 5763 5755 5752 5746 5739 5732 5726
5792 5798 5802 5808 5812 5815 5820 5824 5826 5828 5830 5831 5834 5833 5835 5836 5834 5833 5831 5829 5827 5824 5821 5817 5813 5809 5805 5801 5795 5791 5788 5785 5782 5777 5773 5768 5764 5756 5751 5747 5741 5734 5728 5722
5788 5795 5798 5801 5805 5810 5814 5817 5818 5822 5824 5826 5827 5828 5830 5832 5830 5828 5827 5824 5820 5817 5814 5810 5807 5802 5799 5795 5790 5785 5783 5780 5776 5770 5767 5762 5757 5751 5747 5742 5735 5729 5724 5718
5785 5792 5795 5799 5802 5804 5807 5811 5814 5817 5820 5822 5822 5824 5825 5826 5824 5823 5822 5818 5813 5809 5806 5802 5799 5795 5793 5789 5785 5780 5777 5773 5769 5764 5761 5756 5751 5746 5741 5737 5731 5726 5719 5713
5783 5787 5791 5796 5798 5798 5804 5807 5811 5812 5814 5816 5818 5819 5821 5820 5819 5819 5814 5810 5805 5801 5797 5794 5791 5789 5787 5783 5779 5775 5771 5768 5763 5759 5754 5750 5745 5741 5737 5732 5728 5722 5715 5709
5780 5785 5788 5791 5795 5798 5800 5804 5805 5807 5808 5811 5813 5815 5815 5814 5814 5811 5808 5804 5798 5795 5790 5787 5785 5783 5780 5776 5773 5768 5765 5761 5757 5752 5748 5746 5740 5736 5732 5728 5722 5717 5711 5705
5777 5781 5785 5789 5791 5794 5798 5799 5800 5800 5803 5807 5809 5811 5810 5808 5807 5805 5802 5798 5793 5790 5785 5781 5779 5777 5773 5770 5766 5763 5760 5755 5751 5747 5744 5740 5736 5732 5728 5724 5718 5713 5706 5700
5773 5777 5781 5785 5787 5791 5794 5794 5794 5796 5803 5801 5802 5803 5803 5803 5802 5799 5796 5793 5789 5785 5782 5779 5775 5772 5769 5765 5761 5758 5754 5750 5746 5743 5739 5735 5731 5728 5724 5719 5714 5708 5702 5696
5769 5773 5777 5781 5784 5788 5791 5791 5792 5793 5794 5795 5796 5796 5797 5795 5795 5794 5791 5789 5785 5781 5779 5775 5771 5768 5764 5760 5756 5753 5749 5745 5742 5739 5735 5731 5727 5724 5719 5714 5709 5702 5696 5691
5765 5769 5773 5778 5780 5784 5786 5788 5788 5790 5791 5790 5791 5792 5791 5790 5789 5787 5786 5784 5781 5776 5773 5770 5767 5765 5761 5757 5753 5749 5745 5742 5738 5735 5731 5727 5723 5719 5714 5709 5703 5697 5691 5685
5760 5764 5769 5774 5776 5779 5782 5784 5785 5786 5785 5786 5787 5788 5787 5785 5784 5783 5781 5777 5774 5771 5767 5765 5762 5760 5756 5753 5748 5745 5741 5738 5734 5730 5727 5722 5718 5713 5709 5703 5697 5690 5684 5679
5755 5760 5765 5769 5771 5775 5777 5778 5780 5781 5781 5782 5783 5783 5782 5780 5780 5778 5775 5772 5768 5765 5762 5760 5757 5754 5751 5747 5744 5740 5737 5734 5730 5726 5721 5716 5712 5708 5703 5696 5689 5682 5678 5673
5750 5755 5761 5763 5767 5770 5772 5773 5774 5776 5776 5777 5778 5777 5776 5777 5775 5773 5771 5767 5763 5761 5758 5756 5753 5750 5747 5743 5740 5737 5733 5729 5725 5720 5715 5711 5707 5702 5696 5689 5682 5677 5672 5667